User: anonymous   Login
Location: Unspecified
(0.0000°N, 0.0000°E)
Time: 11:39:49
(UTC+00:00)
Language:

SO-67 - Orbit

View from above orbital plane
View from above orbital plane
View from above satellite
View from above satellite

Ground track
Ground track

The orbit data is extracted from the following two-line orbital elements,

1 35870U 09049F   17082.81882120 +.00005584 +00000-0 +92958-4 0  9992
2 35870 097.1092 100.3471 0003709 053.9250 071.2602 15.52427839419976
Epoch (UTC): 23 March 2017 19:39:06
Eccentricity: 0.0003709
inclination: 97.1092°
perigee height: 407 km
apogee height: 412 km
right ascension of ascending node: 100.3471°
argument of perigee: 53.9250°
revolutions per day: 15.52427839
mean anomaly at epoch: 71.2602°
orbit number at epoch: 41997

The dashed part of the orbit path shows where the satellite is in the earth's shadow,  

DLR